When you browse on this site, cookies collect data to enhance your experience and personalize the content and advertising you see.
Visit our Privacy Policy to learn more. By continuing to use the site, you agree to this use of cookies and data.
EN

Hourly Weather Piaskowice

Today, 9 August, Sunday

Time Temperature Precipitation Wind Pressure Humidity
00:00 +24°C° 0 mm 2 mps 752 mmHg 75%
01:00 +23°C° 0 mm 1 mps 752 mmHg 78%
02:00 +23°C° 0.1 mm 1 mps 752 mmHg 80%
03:00 +23°C° 0.1 mm 1 mps 752 mmHg 81%
04:00 +20°C° 0.1 mm 0 mps 752 mmHg 82%
05:00 +23°C° 0.2 mm 1 mps 752 mmHg 79%
06:00 +24°C° 0.2 mm 1 mps 752 mmHg 76%
07:00 +25°C° 0.2 mm 1 mps 752 mmHg 73%
08:00 +27°C° 0.2 mm 1 mps 752 mmHg 69%
09:00 +28°C° 0.2 mm 1 mps 752 mmHg 64%
10:00 +29°C° 0.2 mm 2 mps 752 mmHg 60%
11:00 +30°C° 0.2 mm 2 mps 752 mmHg 56%
12:00 +30°C° 0.2 mm 2 mps 752 mmHg 52%
13:00 +31°C° 0.2 mm 2 mps 751 mmHg 48%
14:00 +31°C° 0 mm 2 mps 751 mmHg 48%
15:00 +31°C° 0 mm 2 mps 751 mmHg 48%
16:00 +31°C° 0 mm 2 mps 751 mmHg 48%
17:00 +30°C° 0 mm 2 mps 751 mmHg 53%
18:00 +28°C° 0 mm 2 mps 750 mmHg 58%
19:00 +27°C° 0 mm 2 mps 750 mmHg 63%
20:00 +26°C° 0.2 mm 2 mps 751 mmHg 67%
21:00 +25°C° 0.2 mm 2 mps 751 mmHg 70%
22:00 +24°C° 0.2 mm 3 mps 751 mmHg 74%
23:00 +23°C° 0 mm 2 mps 751 mmHg 77%

Tomorrow, 10 August, Monday

Time Temperature Precipitation Wind Pressure Humidity
00:00 +23°C° 0 mm 2 mps 751 mmHg 80%
01:00 +21°C° 0 mm 2 mps 751 mmHg 83%
02:00 +21°C° 0 mm 2 mps 750 mmHg 86%
03:00 +20°C° 0 mm 2 mps 750 mmHg 88%
04:00 +20°C° 0 mm 2 mps 750 mmHg 91%
05:00 +21°C° 0 mm 2 mps 750 mmHg 88%
06:00 +21°C° 0 mm 3 mps 751 mmHg 85%
07:00 +22°C° 0 mm 3 mps 751 mmHg 83%
08:00 +24°C° 0 mm 3 mps 751 mmHg 77%
09:00 +26°C° 0 mm 3 mps 751 mmHg 70%
10:00 +27°C° 0 mm 3 mps 751 mmHg 64%
11:00 +28°C° 0 mm 3 mps 751 mmHg 61%
12:00 +28°C° 0 mm 3 mps 751 mmHg 57%
13:00 +29°C° 0 mm 3 mps 751 mmHg 54%
14:00 +29°C° 0 mm 3 mps 751 mmHg 53%
15:00 +29°C° 0 mm 3 mps 751 mmHg 53%
16:00 +29°C° 0 mm 3 mps 751 mmHg 52%
17:00 +28°C° 0 mm 3 mps 751 mmHg 58%
18:00 +26°C° 0 mm 3 mps 751 mmHg 64%
19:00 +25°C° 0 mm 3 mps 751 mmHg 69%
20:00 +24°C° 0 mm 3 mps 751 mmHg 72%
21:00 +22°C° 0 mm 3 mps 751 mmHg 75%
22:00 +21°C° 0 mm 3 mps 751 mmHg 78%
23:00 +21°C° 0 mm 3 mps 751 mmHg 81%

Day after tomorrow, 11 August, Tuesday

Time Temperature Precipitation Wind Pressure Humidity
00:00 +20°C° 0 mm 3 mps 752 mmHg 83%
01:00 +20°C° 0 mm 2 mps 752 mmHg 86%
02:00 +19°C° 0 mm 2 mps 752 mmHg 88%
03:00 +19°C° 0 mm 2 mps 752 mmHg 90%
04:00 +18°C° 0 mm 2 mps 752 mmHg 92%
05:00 +19°C° 0 mm 3 mps 752 mmHg 89%
06:00 +20°C° 0 mm 3 mps 752 mmHg 85%
07:00 +21°C° 0 mm 3 mps 752 mmHg 82%
08:00 +24°C° 0 mm 3 mps 752 mmHg 74%
09:00 +25°C° 0 mm 3 mps 752 mmHg 65%
10:00 +27°C° 0 mm 4 mps 753 mmHg 57%
11:00 +28°C° 0 mm 4 mps 752 mmHg 54%
12:00 +28°C° 0 mm 4 mps 752 mmHg 50%
13:00 +29°C° 0 mm 4 mps 752 mmHg 47%
14:00 +29°C° 0 mm 4 mps 752 mmHg 47%
15:00 +29°C° 0 mm 4 mps 752 mmHg 48%
16:00 +28°C° 0 mm 4 mps 752 mmHg 48%
17:00 +26°C° 0 mm 4 mps 752 mmHg 53%
18:00 +25°C° 0 mm 4 mps 752 mmHg 57%
19:00 +22°C° 0 mm 4 mps 752 mmHg 62%
20:00 +21°C° 0 mm 4 mps 753 mmHg 65%
21:00 +20°C° 0 mm 4 mps 753 mmHg 68%
22:00 +19°C° 0 mm 3 mps 753 mmHg 71%
23:00 +18°C° 0 mm 3 mps 753 mmHg 74%

12 August, Wednesday

Time Temperature Precipitation Wind Pressure Humidity
00:00 +17°C° 0 mm 3 mps 753 mmHg 76%
01:00 +16°C° 0 mm 3 mps 753 mmHg 79%
02:00 +16°C° 0 mm 3 mps 753 mmHg 82%
03:00 +14°C° 0 mm 3 mps 753 mmHg 85%
04:00 +14°C° 0 mm 3 mps 753 mmHg 87%
05:00 +16°C° 0 mm 3 mps 753 mmHg 84%
06:00 +17°C° 0 mm 3 mps 754 mmHg 81%
07:00 +18°C° 0 mm 3 mps 754 mmHg 77%
08:00 +19°C° 0 mm 3 mps 754 mmHg 71%
09:00 +21°C° 0 mm 3 mps 754 mmHg 64%
10:00 +24°C° 0 mm 3 mps 754 mmHg 57%
11:00 +24°C° 0 mm 3 mps 754 mmHg 54%
12:00 +25°C° 0 mm 3 mps 753 mmHg 50%
13:00 +26°C° 0 mm 3 mps 753 mmHg 46%
14:00 +26°C° 0 mm 3 mps 753 mmHg 46%
15:00 +26°C° 0 mm 3 mps 753 mmHg 45%
16:00 +26°C° 0 mm 3 mps 753 mmHg 45%
17:00 +25°C° 0 mm 3 mps 752 mmHg 51%
18:00 +22°C° 0 mm 3 mps 752 mmHg 57%
19:00 +21°C° 0 mm 3 mps 752 mmHg 63%
20:00 +20°C° 0 mm 3 mps 752 mmHg 65%
21:00 +19°C° 0 mm 3 mps 753 mmHg 67%
22:00 +18°C° 0 mm 3 mps 753 mmHg 69%
23:00 +17°C° 0 mm 3 mps 752 mmHg 70%

13 August, Thursday

Time Temperature Precipitation Wind Pressure Humidity
00:00 +17°C° 0 mm 3 mps 752 mmHg 71%
01:00 +16°C° 0 mm 3 mps 752 mmHg 72%
02:00 +16°C° 0 mm 2 mps 752 mmHg 72%
03:00 +16°C° 0 mm 2 mps 752 mmHg 73%
04:00 +15°C° 0 mm 2 mps 752 mmHg 74%
05:00 +16°C° 0 mm 2 mps 752 mmHg 71%
06:00 +18°C° 0 mm 2 mps 752 mmHg 68%
07:00 +19°C° 0 mm 2 mps 752 mmHg 66%
08:00 +20°C° 0 mm 2 mps 752 mmHg 60%
09:00 +22°C° 0 mm 3 mps 751 mmHg 55%
10:00 +24°C° 0 mm 3 mps 751 mmHg 49%
11:00 +25°C° 0 mm 3 mps 751 mmHg 46%
12:00 +26°C° 0 mm 3 mps 751 mmHg 44%
13:00 +27°C° 0 mm 3 mps 750 mmHg 41%
14:00 +27°C° 0 mm 3 mps 750 mmHg 41%
15:00 +27°C° 0 mm 3 mps 750 mmHg 41%
16:00 +27°C° 0 mm 3 mps 749 mmHg 41%
17:00 +25°C° 0 mm 3 mps 749 mmHg 48%
18:00 +24°C° 0 mm 3 mps 749 mmHg 54%
19:00 +21°C° 0 mm 3 mps 749 mmHg 60%
20:00 +20°C° 0 mm 3 mps 749 mmHg 62%
21:00 +19°C° 0 mm 3 mps 749 mmHg 63%
22:00 +19°C° 0 mm 3 mps 749 mmHg 65%
23:00 +18°C° 0 mm 3 mps 749 mmHg 67%

14 August, Friday

Time Temperature Precipitation Wind Pressure Humidity
00:00 +17°C° 0 mm 3 mps 749 mmHg 69%
01:00 +17°C° 0 mm 2 mps 749 mmHg 71%
02:00 +17°C° 0 mm 2 mps 749 mmHg 73%
03:00 +16°C° 0 mm 2 mps 748 mmHg 74%
04:00 +16°C° 0 mm 2 mps 748 mmHg 75%
05:00 +17°C° 0 mm 2 mps 748 mmHg 73%
06:00 +18°C° 0 mm 3 mps 748 mmHg 70%
07:00 +19°C° 0 mm 3 mps 748 mmHg 68%
08:00 +21°C° 0 mm 3 mps 748 mmHg 62%
09:00 +23°C° 0 mm 4 mps 748 mmHg 55%
10:00 +25°C° 0 mm 4 mps 748 mmHg 49%
11:00 +26°C° 0 mm 4 mps 748 mmHg 46%
12:00 +27°C° 0 mm 4 mps 748 mmHg 43%
13:00 +28°C° 0 mm 4 mps 748 mmHg 40%
14:00 +28°C° 0 mm 4 mps 747 mmHg 40%
15:00 +28°C° 0 mm 4 mps 747 mmHg 41%
16:00 +27°C° 0 mm 4 mps 747 mmHg 41%
17:00 +26°C° 0 mm 4 mps 747 mmHg 46%
18:00 +24°C° 0 mm 3 mps 747 mmHg 51%
19:00 +21°C° 0 mm 3 mps 747 mmHg 57%
20:00 +21°C° 0 mm 3 mps 747 mmHg 59%
21:00 +20°C° 0 mm 3 mps 747 mmHg 62%
22:00 +19°C° 0 mm 3 mps 748 mmHg 65%
23:00 +19°C° 0 mm 3 mps 748 mmHg 67%
Show more